Flag for Norway Weather past 2 weeks in Bodø, Norway

Now
61 °F

Passing clouds.


Feels Like: 61 °F
Forecast: 57 / 68 °F
Wind: 10 mph from North

Location: Bodo Vi

Current Time: Jul 24, 2014 at 11:43:29 PM

Latest Report: Jul 24, 2014 at 10:50 PM


Visibility: N/A

Pressure: 30.24 "Hg

Humidity: 88%

Dew point: 57 °F

Location of BodøLocation

Historic Weather in Bodø — Graph

°F

Bodø temperature yesterday

Maximum temperature yesterday: 73 °F (at 4:20 PM)
Minimum temperature yesterday: 59 °F (at 1:50 AM)
Average temperature yesterday: 66 °F

Past Weeks' High & Low Weather Summary

 TemperatureHumidityPressure
High84 °F (Jul 10, 11:50 AM)100% (Jul 11, 12:20 AM)30.33 "Hg (Jul 11, 12:20 AM)
Low52 °F (Jul 18, 1:50 AM)33% (Jul 14, 2:50 PM)29.71 "Hg (Jul 15, 7:50 AM)
Average65 °F75%30.08 "Hg
* Reported Jul 9 10:20 PM — Jul 24 10:20 PM, Bodø, Weather by CustomWeather, © 2014

Note: Actual official high and low records may vary slightly from our data, if they occured in-between our weather recording intervals... More about our weather records

Advertising

Bodø weather history for previous 24 hours

 ConditionsComfort  
Time TempWeatherWind HumidityBarometerVisibility
10:20 PM
Jul 24
61 °FPassing clouds.9 mph88%30.24 "HgN/A
9:50 PM61 °FPassing clouds.6 mph88%30.24 "HgN/A
9:20 PM61 °FPassing clouds.8 mph88%30.24 "HgN/A
8:50 PM63 °FPassing clouds.8 mph83%30.24 "HgN/A
8:20 PM63 °FPassing clouds.8 mph83%30.24 "HgN/A
7:50 PM63 °FPassing clouds.8 mph83%30.27 "HgN/A
7:20 PM63 °FPassing clouds.9 mph83%30.27 "HgN/A
6:50 PM64 °FPassing clouds.10 mph78%30.27 "HgN/A
6:20 PM64 °FPassing clouds.9 mph83%30.27 "HgN/A
5:50 PM64 °FPassing clouds.8 mph78%30.30 "HgN/A
5:20 PM64 °FPassing clouds.7 mph83%30.30 "HgN/A
4:50 PM64 °FScattered clouds.8 mph83%30.30 "HgN/A
4:20 PM64 °FPartly sunny.7 mph78%30.30 "HgN/A
3:50 PM64 °FPartly sunny.8 mph78%30.30 "HgN/A
3:20 PM64 °FBroken clouds.8 mph83%30.30 "HgN/A
2:50 PM64 °FBroken clouds.6 mph83%30.33 "HgN/A
2:20 PM63 °FBroken clouds.6 mph88%30.33 "HgN/A
1:50 PM63 °FBroken clouds.5 mph88%30.33 "HgN/A
1:20 PM63 °FBroken clouds.5 mph88%30.33 "HgN/A
12:50 PM63 °FPartly sunny.5 mph88%30.33 "HgN/A
12:20 PM63 °FPartly sunny.5 mph88%30.33 "HgN/A
11:50 AM63 °FBroken clouds.5 mph88%30.33 "HgN/A
11:20 AM61 °FPartly sunny.5 mph94%30.33 "HgN/A
10:50 AM63 °FPartly sunny.5 mph88%30.33 "HgN/A
10:20 AM61 °FPartly sunny.6 mph94%30.33 "HgN/A
9:50 AM61 °FLow clouds.6 mph94%30.33 "HgN/A
9:20 AM61 °FFog.5 mph94%30.33 "HgN/A
8:50 AM61 °FFog.2 mph94%30.33 "HgN/A
8:20 AM59 °FBroken clouds.2 mph100%30.33 "Hg4 mi
7:50 AM59 °FBroken clouds.2 mph100%30.33 "Hg4 mi
7:20 AM59 °FDrizzle. Broken clouds.3 mph100%30.33 "Hg4 mi
6:50 AM61 °FDrizzle. Broken clouds.3 mph94%30.33 "Hg4 mi
6:20 AM61 °FDrizzle. More clouds than sun.3 mph94%30.33 "Hg6 mi
5:50 AM61 °FDrizzle. More clouds than sun.3 mph94%30.33 "HgN/A
5:20 AM61 °FDrizzle. More clouds than sun.5 mph94%30.33 "HgN/A
4:50 AM61 °FDrizzle. More clouds than sun.7 mph94%30.33 "HgN/A
3:50 AM61 °FPartly sunny.5 mph94%30.33 "HgN/A
2:50 AM61 °FPassing clouds.3 mph94%30.33 "HgN/A
1:50 AM61 °FPassing clouds.6 mph94%30.33 "HgN/A
12:50 AM63 °FPassing clouds.5 mph94%30.33 "HgN/A
12:20 AM63 °FPartly sunny.7 mph94%30.33 "HgN/A
11:50 PM
Jul 23
61 °FPassing clouds.9 mph94%30.33 "HgN/A
11:20 PM63 °FPassing clouds.10 mph88%30.30 "HgN/A
Weather by CustomWeather, © 2014

See weather overviewHow to use our weather pages